Hourly Data Report for October 15, 2016

All times are specified in Local Standard Time (LST). Add 1 hour to adjust for Daylight Saving Time where and when it is observed.

ARVIAT A
NUNAVUT

61°05'38.000" N
94°04'18.000" W
10.40 m
2300427
71174
YEK

Download Data

Hourly Data (October 2016)
Hourly Data Report for October 15, 2016
Temp Definition
°C
Dew Point Temp Definition
°C
Rel Hum Definition
%
Wind Dir Definition
10's deg

Wind Spd Definition
km/h
Visibility Definition
km
Stn Press Definition
kPa
Hmdx Definition


Wind Chill Definition


Weather Definition


TIME
00:00 Legend Double Dagger -6.6 -7.0 97 34 17 16.1 101.18   -13 LegendNANA
01:00 Legend Double Dagger -6.5 -6.5 100 33 15 2.8 101.20   -12 Fog
02:00 Legend Double Dagger -6.5 -6.5 100 31 15 4.8 101.20   -12 Fog
03:00 Legend Double Dagger -5.9 -5.9 100 32 13 2.0 101.20   -11 Snow
04:00 Legend Double Dagger -5.5 -5.5 100 34 15 3.2 101.17   -11 Fog
05:00 Legend Double Dagger -5.9 -6.0 99 34 18 2.8 101.13   -12 Fog
06:00 Legend Double Dagger -5.4 -5.5 99 34 21 4.0 101.13   -12 Fog
07:00 Legend Double Dagger -5.3 -5.4 99 35 24 16.1 101.12   -13 LegendNANA
08:00 Legend Double Dagger -5.6 -5.7 99 36 28 8.1 101.12   -14 Fog
09:00 Legend Double Dagger -5.9 -6.0 99 36 26 16.1 101.14   -14 LegendNANA
10:00 Legend Double Dagger -6.6 -6.9 98 36 30 14.5 101.14   -15 Snow
11:00 Legend Double Dagger -7.2 -7.6 97 36 28 1.6 101.19   -16 Snow
12:00 Legend Double Dagger -7.0 -7.4 97 35 26 16.1 101.20   -15 Snow
13:00 Legend Double Dagger -6.4 -6.9 96 36 30 16.1 101.18   -15 LegendNANA
14:00 Legend Double Dagger -6.0 -7.0 93 36 28 16.1 101.18   -14 LegendNANA
15:00 Legend Double Dagger -6.0 -6.5 96 36 30 16.1 101.20   -14 LegendNANA
16:00 Legend Double Dagger -6.1 -6.9 94 36 30 16.1 101.23   -14 LegendNANA
17:00 Legend Double Dagger -6.3 -6.8 96 35 30 9.7 101.25   -15 Snow
18:00 Legend Double Dagger -6.5 -7.2 95 36 34 6.4 101.29   -15 Snow
19:00 Legend Double Dagger -6.5 -7.3 94 36 32 16.1 101.31   -15 Snow
20:00 Legend Double Dagger -6.5 -7.2 95 35 32 16.1 101.35   -15 Snow
21:00 Legend Double Dagger -6.8 -7.4 95 36 30 16.1 101.39   -15 Snow
22:00 Legend Double Dagger -7.1 -7.8 95 36 30 6.4 101.42   -16 Snow
23:00 Legend Double Dagger -7.2 -8.0 94 36 22 16.1 101.45   -15 LegendNANA

Notes on Data Quality.

Legend

  • E = Estimated
  • M = Missing
  • NA = Not Available
  • ‡ = Partner data that is not subject to review by the National Climate Archives
Date modified: